Location: Unspecified
(0.0000°N, 0.0000°E)
Time: 08:45:33
(UTC+00:00)

Vanguard 1 Rocket - All Passes

Search period start: 26 September 2016 00:00
Search period end: 06 October 2016 00:00
Orbit: 651 x 4226 km, 34.3° (Epoch: 25 September)

Date Brightness Start Highest point End Pass type
(mag) Time Alt. Az. Time Alt. Az. Time Alt. Az.
26 Sep - 05:13:16 10° S 05:18:49 21° SE 05:27:08 10° E visible
26 Sep - 07:35:11 10° SW 07:45:02 90° NW 08:05:08 10° NE daylight
26 Sep - 10:02:41 10° W 10:16:46 39° NNW 10:39:01 10° NE daylight
26 Sep - 12:38:59 10° NW 12:55:59 23° N 13:14:11 10° NE daylight
26 Sep - 15:18:40 10° NW 15:38:02 26° NNE 15:52:13 10° ENE daylight
26 Sep - 17:53:01 10° NW 18:12:56 52° NNE 18:23:24 10° ESE visible
26 Sep - 20:27:21 10° WNW 20:40:54 50° SW 20:47:59 10° SSE visible
27 Sep - 06:24:55 10° SW 06:32:56 57° SE 06:48:43 10° ENE daylight
27 Sep - 08:50:00 10° WSW 09:01:46 51° NNW 09:23:21 10° NE daylight
27 Sep - 11:22:09 10° WNW 11:37:40 26° NNW 11:57:35 10° NE daylight
27 Sep - 14:01:37 10° NW 14:20:05 23° N 14:36:08 10° NE daylight
27 Sep - 16:37:20 10° NW 16:58:25 39° NNE 17:11:04 10° E daylight
27 Sep - 19:11:09 10° NW 19:29:11 86° SW 19:37:57 10° SE visible
27 Sep - 21:49:06 10° W 21:54:50 16° SW 21:59:03 10° S visible
28 Sep - 05:15:35 10° SSW 05:21:40 29° SE 05:31:43 10° E visible
28 Sep - 07:38:31 10° WSW 07:48:08 72° NW 08:07:38 10° NE daylight
28 Sep - 10:07:13 10° WNW 10:20:47 32° NNW 10:41:22 10° NE daylight
28 Sep - 12:44:15 10° NW 13:01:09 22° N 13:18:44 10° NE daylight
28 Sep - 15:21:29 10° NW 15:42:28 31° NNE 15:57:15 10° ENE daylight
28 Sep - 17:55:14 10° NW 18:16:20 66° NNE 18:27:04 10° ESE visible
28 Sep - 20:30:59 10° WNW 20:43:40 37° SW 20:50:44 10° SSE visible
29 Sep - 04:08:56 10° SSE 04:10:32 11° SE 04:12:19 10° ESE visible
29 Sep - 06:27:56 10° SW 06:35:46 75° SE 06:51:46 10° ENE daylight
29 Sep - 08:53:59 10° W 09:05:25 41° NNW 09:25:30 10° NE daylight
29 Sep - 11:27:28 10° NW 11:42:27 23° N 12:01:02 10° NE daylight
29 Sep - 14:05:21 10° NW 14:25:00 25° NNE 14:41:32 10° ENE daylight
29 Sep - 16:39:31 10° NW 17:02:08 48° NNE 17:15:12 10° E daylight
29 Sep - 19:14:01 10° WNW 19:32:05 67° SW 19:41:02 10° SE visible
29 Sep - 21:55:49 10° SW 21:57:53 11° SW 21:59:45 10° SSW visible
30 Sep - 05:18:11 10° SSW 05:24:27 40° SE 05:35:40 10° ENE visible
30 Sep - 07:42:04 10° WSW 07:51:28 56° NNW 08:09:56 10° NE daylight
30 Sep - 10:12:06 10° WNW 10:25:06 26° NNW 10:43:55 10° NE daylight
30 Sep - 12:49:01 10° NW 13:06:21 22° N 13:23:52 10° NE daylight
30 Sep - 15:23:59 10° NW 15:46:35 37° NNE 16:01:56 10° E daylight
30 Sep - 17:57:37 10° NW 18:19:29 82° NE 18:30:29 10° ESE visible
30 Sep - 20:35:09 10° W 20:46:26 28° SW 20:53:17 10° SSE visible
01 Oct - 04:09:42 10° S 04:13:34 17° SE 04:18:44 10° E visible
01 Oct - 06:31:08 10° WSW 06:38:49 83° NW 06:54:32 10° NE daylight
01 Oct - 08:58:19 10° W 09:09:20 32° NNW 09:27:39 10° NE daylight
01 Oct - 11:32:47 10° NW 11:47:29 21° N 12:05:08 10° NE daylight
01 Oct - 14:08:32 10° NW 14:29:36 29° NNE 14:46:49 10° ENE daylight
01 Oct - 16:41:44 10° NW 17:05:35 59° NNE 17:18:59 10° ESE daylight
01 Oct - 19:17:12 10° WNW 19:34:50 52° SW 19:43:56 10° SSE visible
02 Oct - 05:21:01 10° SW 05:27:18 56° SE 05:39:09 10° ENE visible
02 Oct - 07:45:56 10° W 07:55:04 43° NNW 08:12:06 10° NE daylight
02 Oct - 10:17:17 10° NW 10:29:41 22° N 10:46:52 10° NE daylight
02 Oct - 12:53:08 10° NW 13:11:23 24° NNE 13:29:23 10° ENE daylight
02 Oct - 15:26:19 10° NW 15:50:21 45° NNE 16:06:15 10° E daylight
02 Oct - 18:00:12 10° NW 18:22:24 82° SW 18:33:40 10° SE visible
02 Oct - 20:39:58 10° W 20:49:19 20° SW 20:55:33 10° S visible
03 Oct - 04:11:49 10° S 04:16:28 25° SE 04:23:27 10° E visible
03 Oct - 06:34:36 10° WSW 06:42:04 62° NNW 06:57:02 10° NE daylight
03 Oct - 09:03:03 10° WNW 09:13:30 26° NNW 09:29:53 10° NNE daylight
03 Oct - 11:37:46 10° NW 11:52:39 21° N 12:10:01 10° NE daylight
03 Oct - 14:11:20 10° NW 14:33:49 34° NNE 14:51:46 10° E daylight
03 Oct - 16:44:02 10° NW 17:08:46 72° NE 17:22:31 10° ESE daylight
03 Oct - 19:20:50 10° WNW 19:37:32 40° SW 19:46:41 10° SSE visible
04 Oct - 05:24:06 10° SW 05:30:16 80° SE 05:42:15 10° NE visible
04 Oct - 07:50:07 10° W 07:58:53 33° NNW 08:14:09 10° NE daylight
04 Oct - 10:22:37 10° NW 10:34:33 20° N 10:50:23 10° NE daylight
04 Oct - 12:56:39 10° NNW 13:16:08 27° NNE 13:34:56 10° ENE daylight
04 Oct - 15:28:37 10° NW 15:53:51 54° NNE 16:10:12 10° ESE daylight
04 Oct - 18:03:04 10° WNW 18:25:09 66° SW 18:36:41 10° SE visible
04 Oct - 20:45:42 10° WSW 20:52:23 15° SW 20:57:24 10° S visible
05 Oct - 04:14:22 10° SSW 04:19:21 37° SE 04:27:27 10° ENE visible
05 Oct - 06:38:20 10° W 06:45:36 45° NNW 06:59:19 10° NE daylight
05 Oct - 09:08:08 10° NW 09:17:56 21° N 09:32:19 10° NNE daylight
05 Oct - 11:42:11 10° NNW 11:57:44 22° NNE 12:15:30 10° NE daylight
05 Oct - 14:13:53 10° NW 14:37:42 41° NNE 14:56:20 10° E daylight
05 Oct - 16:46:29 10° NW 17:11:43 87° NE 17:25:48 10° SE daylight
05 Oct - 19:24:58 10° W 19:40:16 32° SW 19:49:17 10° SSE visible
